Regional Weather Roundup
Issued by NWS

Home | Current Version | Previous Version | Text Only | Print | Product List | Glossary Off
Versions: 1 2 3 4 5 6 7 8 9 10 11 12 13 14 15 16 17 18 19 20 21 22 23 24 25 26 27 28 29 30 31 32 33 34 35 36 37 38 39 40 41 42 43 44 45 46 47 48 49 50

000
ASUS43 KIND 051309
RWRIN

WEATHER ROUNDUP FOR INDIANA
NATIONAL WEATHER SERVICE INDIANAPOLIS IN
900 AM EDT THU MAY 05 2016

NOTE: "FAIR" INDICATES FEW OR NO CLOUDS BELOW 12,000 FEET WITH NO
SIGNIFICANT WEATHER AND/OR OBSTRUCTIONS TO VISIBILITY.

* - STATION DOES NOT REPORT WEATHER SUCH AS PRECIPITATION OR FOG.

+ - STATION NOT QUALITY CONTROLLED BY THE NATIONAL WEATHER SERVICE.
    USE DATA WITH CAUTION...ESPECIALLY DEWPOINT AND RELATIVE
    HUMIDITY OBSERVATIONS.

INZ001>003-010>013-019-020-051400-
NORTHWEST INDIANA

CITY           SKY/WX    TMP DP  RH WIND       PRES   REMARKS
GARY /AIRPORT/ CLOUDY    45  43  93 N20G31    29.96R
KNOX *+        CLOUDY    43  39  87 N14       29.91R
LA PORTE +     CLOUDY    45  45 100 N9        29.92R
MICHIGAN CITY+ CLOUDY    41  41 100 N12       29.94R
MONTICELLO +   CLOUDY    44  40  87 N14       29.89R
RENSSELAER +   CLOUDY    43  41  93 N15       29.91R
VALPARAISO     CLOUDY    42  39  89 N17G24    29.92R

$$

LMZ046-743>745-051400-
SOUTHERN LAKE MICHIGAN

STATION/POSITION TIME  TEMP    WIND        PRES    WAVE
                       AIR SEA DIR/SP/G            HT
                 (UTC) (F)     (DEG/KT/KT) (MB)    (FT)
BURNS HARBOR     1215   42     350/ 17/ 23 1014.2R
MICHIGAN CITY    1220   42     340/ 20/ 21   N/A

$$

INZ004-005-014>016-021>024-051400-
NORTH CENTRAL INDIANA

CITY           SKY/WX    TMP DP  RH WIND       PRES   REMARKS
ELKHART        CLOUDY    45  45 100 N7        29.90R
GOSHEN         CLOUDY    46  43  89 N10       29.88R
LOGANSPORT +   CLOUDY    45  45 100 N10       29.88R
PERU/GRISSOM   CLOUDY    46  46 100 NW8       29.85R
ROCHESTER +    CLOUDY    48  46  93 N8        29.87R
SOUTH BEND     CLOUDY    45  42  89 N9        29.91R
WARSAW +       CLOUDY    45  43  93 N10       29.87R

$$

INZ006>009-017-018-025>027-051400-
NORTHEAST INDIANA

CITY           SKY/WX    TMP DP  RH WIND       PRES   REMARKS
ANGOLA *+      PTSUNNY   46  45  93 N8        29.85R
AUBURN +       PTSUNNY   46  43  87 N14G20    29.85R
FORT WAYNE     PTSUNNY   49  45  86 N12       29.85R
HUNTINGTON +   CLOUDY    45  44  95 N8        29.84R

$$

INZ028-029-035-036-043>045-051>053-051400-
WEST CENTRAL INDIANA

CITY           SKY/WX    TMP DP  RH WIND       PRES   REMARKS
CRAWFORDSVL +  CLOUDY    43  43 100 N9        29.88R
GREENCASTLE +  CLOUDY    43  43 100 N14       29.88R
LAFAYETTE      CLOUDY    43  40  89 N15       29.89R
TERRE HAUTE    CLOUDY    46  39  76 N12G21    29.88R

$$

INZ030>032-037>040-046>048-054>057-064-065-051400-
CENTRAL INDIANA

CITY           SKY/WX    TMP DP  RH WIND       PRES   REMARKS
ANDERSON       CLOUDY    41  39  93 NW7       29.85
CP ATTERBURY + CLOUDY    43  37  81 NE8       29.85R
COLUMBUS       CLOUDY    43  41  93 N13       29.85R
FISHERS *+     CLOUDY    41  41 100 NE5       29.87R
FRANKFORT +      N/A     44  44  98 N10       29.89R
GREENWOOD *+   PTSUNNY   43  37  81 NE9       29.86R
INDIANAPOLIS   PTSUNNY   44  38  79 N12       29.85R
-EAGLE CREEK   CLOUDY    45  39  79 N9        29.86R
KOKOMO *+      CLOUDY    45  39  81 N9        29.86R
MARION +       CLOUDY    41  40  95 NW3       29.86R
SHELBYVILLE    PTSUNNY   46  37  71 NE9       29.84R
ZIONSVILLE +   CLOUDY    42  39  88 N7        29.86S

$$

INZ033-034-041-042-049-050-058-059-051400-
EAST CENTRAL INDIANA

CITY           SKY/WX    TMP DP  RH WIND       PRES   REMARKS
MUNCIE         CLOUDY    44  39  82 NW7       29.84R

$$

INZ060-061-067>069-081>083-085>088-051400-
SOUTHWEST INDIANA

CITY           SKY/WX    TMP DP  RH WIND       PRES   REMARKS
EVANSVILLE     PTSUNNY   47  38  71 N15G21    29.87R
HUNTINGBURG *+ CLOUDY    46  37  71 N8G22     29.86R
WASHINGTON +   CLOUDY    45  41  87 N12G18    29.87R

$$

INZ062-063-066-070>080-084-089>092-051400-
SOUTH CENTRAL AND SOUTHEAST INDIANA

CITY           SKY/WX    TMP DP  RH WIND       PRES   REMARKS
BEDFORD +      DRIZZLE   45  45 100 N8        29.83R
BLOOMINGTON    CLOUDY    44  40  85 N10       29.85R
MADISON *+     CLOUDY    43  37  81 N6        29.83R
NORTH VERNON + CLOUDY   N/A N/A N/A CALM      29.83R
SEYMOUR +      CLOUDY    45  43  93 NE13      29.83R

$$





USA.gov is the U.S. government's official web portal to all federal, state and local government web resources and services.